Date String (YYYY-MM-DD hh:mm:ss) UTC,Instrument flags,Ambient pressure (hPa),Sample flow (lpm),Bypass flow (lpm),Sample temperature (°C),Ambient temperature (°C),ASC tube jacket temperature (°C),LED temperature (°C),Box temperature (°C),Sample RH (%),Span deviation,Mass concentration (μg/m³),Mass concentration (μg/m³),Mass concentration (μg/m³)
DateTimeUTC,F1_M11,P_M11,Q1_M11,Q2_M11,T1_M11,T2_M11,T3_M11,T4_M11,T5_M11,U1_M11,ZSPAN_M11,X2_M11,X0_M11,X1_M11
2021-11-17 02:00:00,,0818.8,5.01,0.00,29.6,28.8,00.0,38.7,31.3,08.2,0000.0,0000.65,0004.13,0000.33
2021-11-17 02:01:00,,0818.8,4.98,0.00,29.5,28.8,00.0,38.7,31.2,08.2,0000.0,0000.61,0004.35,0000.32
2021-11-17 02:02:00,,0818.8,5.01,0.00,29.5,28.8,00.0,38.7,31.2,08.2,0000.0,0000.60,0004.23,0000.33
2021-11-17 02:03:00,,0818.9,5.00,0.00,29.5,28.7,00.0,38.6,31.2,08.2,0000.0,0000.64,0003.42,0000.33
2021-11-17 02:04:00,,0818.9,4.99,0.00,29.5,28.7,00.0,38.6,31.2,08.3,0000.0,0000.64,0002.67,0000.33
2021-11-17 02:05:00,,0818.9,5.00,0.00,29.5,28.7,00.0,38.6,31.2,08.3,0000.0,0000.62,0002.60,0000.33
2021-11-17 02:06:00,,0818.8,5.00,0.00,29.5,28.7,00.0,38.6,31.2,08.3,0000.0,0000.63,0002.61,0000.33
2021-11-17 02:07:00,,0818.9,5.01,0.00,29.5,28.7,00.0,38.6,31.2,08.3,0000.0,0000.62,0002.51,0000.33
2021-11-17 02:08:00,,0818.9,5.01,0.00,29.4,28.6,00.0,38.6,31.1,08.3,0000.0,0000.62,0002.50,0000.34
2021-11-17 02:09:00,,0818.9,5.00,0.00,29.4,28.6,00.0,38.6,31.1,08.3,0000.0,0000.60,0002.24,0000.34
2021-11-17 02:10:00,,0818.8,5.00,0.00,29.4,28.6,00.0,38.6,31.1,08.3,0000.0,0000.58,0002.17,0000.35
2021-11-17 02:11:00,,0818.9,4.99,0.00,29.4,28.6,00.0,38.5,31.1,08.3,0000.0,0000.58,0002.15,0000.35
2021-11-17 02:12:00,,0818.8,5.00,0.00,29.4,28.6,00.0,38.5,31.1,08.3,0000.0,0000.61,0002.04,0000.35
2021-11-17 02:13:00,,0818.9,5.00,0.00,29.4,28.6,00.0,38.5,31.1,08.3,0000.0,0000.66,0001.23,0000.35
2021-11-17 02:14:00,,0818.8,5.00,0.00,29.4,28.5,00.0,38.5,31.0,08.3,0000.0,0000.64,0001.17,0000.35
2021-11-17 02:15:00,,0818.7,5.01,0.00,29.3,28.5,00.0,38.5,31.0,08.4,0000.0,0000.63,0001.13,0000.35
2021-11-17 02:16:00,,0818.7,5.00,0.00,29.3,28.4,00.0,38.5,30.9,08.4,0000.0,0000.64,0001.18,0000.36
2021-11-17 02:17:00,,0818.8,5.00,0.00,29.2,28.3,00.0,38.4,30.8,08.4,0000.0,0000.63,0001.21,0000.36
2021-11-17 02:18:00,,0819.0,5.00,0.00,29.2,28.3,00.0,38.4,30.8,08.4,0000.0,0000.64,0001.25,0000.36
2021-11-17 02:19:00,,0818.9,5.00,0.00,29.2,28.3,00.0,38.4,30.8,08.4,0000.0,0000.64,0001.60,0000.35
2021-11-17 02:20:00,,0818.9,5.00,0.00,29.2,28.3,00.0,38.4,30.9,08.4,0000.0,0000.65,0001.85,0000.35
2021-11-17 02:21:00,,0818.9,5.01,0.00,29.2,28.3,00.0,38.4,30.9,08.4,0000.0,0000.66,0001.98,0000.35
2021-11-17 02:22:00,,0818.9,5.01,0.00,29.2,28.3,00.0,38.4,30.9,08.5,0000.0,0000.67,0002.02,0000.35
2021-11-17 02:23:00,,0819.0,5.00,0.00,29.2,28.3,00.0,38.3,30.9,08.5,0000.0,0000.65,0001.97,0000.35
2021-11-17 02:24:00,,0819.1,4.99,0.00,29.1,28.3,00.0,38.3,30.8,08.5,0000.0,0000.59,0001.83,0000.34
2021-11-17 02:25:00,,0819.1,5.01,0.00,29.1,28.3,00.0,38.3,30.8,08.5,0000.0,0000.58,0001.74,0000.34
2021-11-17 02:26:00,,0819.0,5.01,0.00,29.1,28.3,00.0,38.3,30.8,08.5,0000.0,0000.61,0001.84,0000.34
2021-11-17 02:27:00,,0819.0,5.00,0.00,29.1,28.3,00.0,38.3,30.8,08.5,0000.0,0000.65,0002.00,0000.34
2021-11-17 02:28:00,,0819.0,5.00,0.00,29.1,28.3,00.0,38.3,30.8,08.5,0000.0,0000.66,0002.26,0000.34
2021-11-17 02:29:00,,0818.9,5.00,0.00,29.1,28.2,00.0,38.3,30.8,08.5,0000.0,0000.67,0002.29,0000.34
2021-11-17 02:30:00,,0819.0,5.00,0.00,29.1,28.2,00.0,38.3,30.8,08.5,0000.0,0000.73,0002.31,0000.34
2021-11-17 02:31:00,,0819.2,4.99,0.00,29.1,28.2,00.0,38.2,30.8,08.5,0000.0,0000.74,0001.90,0000.35
2021-11-17 02:32:00,,0819.1,5.00,0.00,29.1,28.2,00.0,38.2,30.8,08.5,0000.0,0000.77,0001.91,0000.35
2021-11-17 02:33:00,,0819.1,5.00,0.00,29.1,28.2,00.0,38.2,30.7,08.5,0000.0,0000.77,0001.83,0000.36
2021-11-17 02:34:00,,0819.0,5.00,0.00,29.1,28.2,00.0,38.2,30.8,08.5,0000.0,0000.77,0001.91,0000.36
2021-11-17 02:35:00,,0819.1,5.00,0.00,29.1,28.3,00.0,38.2,30.8,08.5,0000.0,0000.78,0002.58,0000.36
2021-11-17 02:36:00,,0819.3,5.00,0.00,29.1,28.2,00.0,38.2,30.8,08.5,0000.0,0000.76,0003.46,0000.36
2021-11-17 02:37:00,,0819.3,4.99,0.00,29.1,28.2,00.0,38.2,30.8,08.5,0000.0,0000.74,0003.45,0000.36
2021-11-17 02:38:00,,0819.3,5.00,0.00,29.1,28.2,00.0,38.2,30.8,08.5,0000.0,0000.72,0003.33,0000.38
2021-11-17 02:39:00,,0819.3,5.00,0.00,29.1,28.2,00.0,38.2,30.8,08.5,0000.0,0000.72,0003.09,0000.38
2021-11-17 02:40:00,,0819.4,5.00,0.00,29.1,28.2,00.0,38.2,30.8,08.5,0000.0,0000.73,0003.10,0000.38
2021-11-17 02:41:00,,0819.4,5.01,0.00,29.1,28.2,00.0,38.2,30.8,08.5,0000.0,0000.70,0003.02,0000.39
2021-11-17 02:42:00,,0819.3,4.99,0.00,29.1,28.3,00.0,38.2,30.8,08.5,0000.0,0000.69,0003.00,0000.39
2021-11-17 02:43:00,,0819.4,5.00,0.00,29.1,28.3,00.0,38.2,30.8,08.5,0000.0,0000.70,0003.07,0000.39
2021-11-17 02:44:00,,0819.5,4.99,0.00,29.1,28.2,00.0,38.2,30.8,08.5,0000.0,0000.71,0003.12,0000.39
2021-11-17 02:45:00,,0819.5,5.00,0.00,29.1,28.2,00.0,38.2,30.8,08.5,0000.0,0000.69,0002.97,0000.39
2021-11-17 02:46:00,,0819.6,5.00,0.00,29.1,28.2,00.0,38.1,30.7,08.5,0000.0,0000.71,0002.53,0000.39
2021-11-17 02:47:00,,0819.6,5.00,0.00,29.1,28.2,00.0,38.1,30.7,08.5,0000.0,0000.70,0001.56,0000.39
2021-11-17 02:48:00,,0819.6,5.01,0.00,29.1,28.2,00.0,38.1,30.7,08.5,0000.0,0000.70,0001.45,0000.39
2021-11-17 02:49:00,,0819.7,5.00,0.00,29.1,28.2,00.0,38.1,30.7,08.5,0000.0,0000.69,0001.44,0000.38
2021-11-17 02:50:00,,0819.7,5.01,0.00,29.1,28.2,00.0,38.1,30.7,08.5,0000.0,0000.67,0001.42,0000.38
2021-11-17 02:51:00,,0819.7,5.00,0.00,29.1,28.2,00.0,38.1,30.7,08.5,0000.0,0000.66,0003.38,0000.38
2021-11-17 02:52:00,,0819.7,5.00,0.00,29.1,28.3,00.0,38.1,30.7,08.5,0000.0,0000.61,0005.27,0000.37
2021-11-17 02:53:00,,0819.7,5.00,0.00,29.1,28.2,00.0,38.1,30.7,08.5,0000.0,0000.59,0005.88,0000.37
2021-11-17 02:54:00,,0819.7,5.00,0.00,29.1,28.3,00.0,38.1,30.7,08.5,0000.0,0000.57,0005.88,0000.36
2021-11-17 02:55:00,,0819.6,5.00,0.00,29.1,28.3,00.0,38.1,30.7,08.6,0000.0,0000.57,0005.83,0000.36
2021-11-17 02:56:00,,0819.8,5.02,0.00,29.1,28.3,00.0,38.1,30.8,08.7,0000.0,0000.60,0006.09,0000.36
2021-11-17 02:57:00,,0819.9,5.00,0.00,29.1,28.2,00.0,38.1,30.8,08.6,0000.0,0000.60,0006.14,0000.36
2021-11-17 02:58:00,,0819.8,4.99,0.00,29.1,28.2,00.0,38.1,30.8,08.7,0000.0,0000.62,0006.94,0000.38
2021-11-17 02:59:00,,0819.9,4.99,0.00,29.1,28.2,00.0,38.1,30.7,08.7,0000.0,0000.66,0007.18,0000.38
